CAPE
0 0 0 0 0 0 0 0 0 0 0 170 331 513 588 886 809 1002 887 990 947 692 124 27 46 0 0 54 15 3 9 26
0 0 0 0 0 0 0 0 0 0 61 48 149 296 620 684 544 588 832 1036 1144 739 351 60 89 64 26 62 37 0 11 28
0 0 0 0 0 0 0 0 0 0 2 305 321 472 816 421 223 97 643 985 1163 901 631 269 186 172 67 51 63 39 19 12
0 0 0 0 0 0 0 0 0 1 23 53 523 561 786 395 98 199 315 840 1098 1019 853 550 372 326 294 105 81 70 42 39
0 0 0 0 0 0 0 0 0 0 32 4 227 629 785 695 246 199 345 533 900 1146 1060 821 630 509 485 407 184 149 88 74
0 0 0 0 0 0 0 0 0 0 5 28 0 406 798 755 744 536 421 409 542 811 1100 1023 969 831 731 657 472 203 136 101
0 0 0 0 0 0 0 0 0 0 0 0 0 9 581 923 1042 1004 607 201 323 463 653 809 894 1024 1034 996 820 556 281 187
0 0 0 0 0 0 0 0 0 0 0 0 0 0 169 867 958 926 878 309 273 304 365 562 884 1085 1213 1268 1271 1026 706 424
0 0 0 0 0 0 0 0 0 0 0 0 0 0 0 49 820 970 1096 693 339 178 207 269 524 713 949 1226 1268 1091 884 533
0 0 0 0 0 0 0 0 0 0 0 0 0 0 0 0 0 872 1199 1041 550 185 144 141 221 203 256 722 858 953 979 810
0 0 0 0 0 0 0 0 0 0 0 0 0 0 0 0 0 73 922 868 581 151 16 105 174 359 399 355 522 522 785 908
0 0 0 0 0 0 0 0 0 0 0 0 0 0 0 0 0 0 349 625 676 217 169 156 200 500 481 419 362 422 490 731
0 0 0 0 0 0 0 0 0 0 0 0 0 0 0 0 0 0 41 433 959 695 604 548 438 675 586 448 413 414 396 483
0 0 0 0 0 0 0 0 0 0 0 0 0 0 0 0 0 0 23 383 757 904 644 426 784 1317 1138 778 513 537 491 343
0 0 0 0 0 0 0 0 0 0 0 0 0 0 0 0 0 0 0 389 570 594 605 555 88 848 1842 1875 1169 870 513 387
0 0 0 0 0 0 0 0 0 0 0 0 0 0 0 0 0 0 0 165 591 762 664 326 176 251 1080 1067 1862 2026 1233 573
0 0 0 0 0 0 0 0 0 0 0 0 0 0 0 0 0 0 0 126 475 360 1 359 602 1140 966 1573 1819 1826 2083 1972
0 0 0 0 0 0 0 0 0 0 0 0 0 0 0 0 0 0 0 11 18 0 0 0 0 436 1657 1753 1626 1543 1476 1499
0 0 0 0 0 0 0 0 0 0 0 0 0 0 0 0 0 0 0 0 0 0 0 0 0 0 0 0 48 71 20 107
0 0 0 0 0 0 0 0 0 0 0 0 0 0 0 0 0 0 0 0 0 0 0 2 59 0 0 0 0 0 0 0
CIN
-0 -0 -0 -0 -0 -0 -0 -0 -0 -0 -0 -92 -130 -265 -308 -411 -527 -494 -487 -452 -419 -434 -526 -572 -553 -0 -0 -534 -580 -171 -540 -496
-0 -0 -0 -0 -0 -0 -0 -0 -0 -3 -67 -118 -162 -183 -281 -478 -560 -526 -492 -433 -386 -422 -464 -528 -513 -518 -566 -514 -525 -0 -536 -494
-0 -0 -0 -0 -0 -0 -0 -0 -0 -0 -34 -59 -145 -207 -301 -447 -533 -530 -483 -427 -372 -377 -389 -440 -440 -441 -488 -485 -502 -482 -514 -520
-0 -0 -0 -0 -0 -0 -0 -0 -0 -28 -65 -101 -142 -155 -285 -418 -506 -490 -495 -420 -377 -341 -326 -358 -379 -378 -384 -458 -460 -445 -474 -485
-0 -0 -0 -0 -0 -0 -0 -0 -0 -4 -66 -22 -139 -156 -206 -305 -371 -418 -432 -435 -380 -315 -276 -276 -295 -316 -320 -332 -397 -436 -459 -461
-0 -0 -0 -0 -0 -0 -0 -0 -0 -0 -30 -68 -0 -138 -186 -247 -301 -385 -408 -424 -405 -354 -274 -259 -253 -260 -266 -282 -324 -398 -425 -454
-0 -0 -0 -0 -0 -0 -0 -0 -0 -0 -0 -0 -0 -18 -127 -199 -270 -306 -364 -428 -427 -402 -368 -321 -288 -239 -222 -215 -245 -298 -357 -377
-0 -0 -0 -0 -0 -0 -0 -0 -0 -0 -0 -0 -0 -0 -93 -118 -139 -183 -255 -408 -451 -441 -404 -358 -295 -236 -184 -161 -142 -177 -237 -300
-0 -0 -0 -0 -0 -0 -0 -0 -0 -0 -0 -0 -0 -0 -0 -13 -79 -93 -212 -353 -462 -467 -439 -400 -344 -323 -274 -193 -173 -189 -216 -297
-0 -0 -0 -0 -0 -0 -0 -0 -0 -0 -0 -0 -0 -0 -0 -0 -0 -108 -174 -257 -350 -419 -421 -408 -398 -414 -401 -325 -293 -245 -212 -215
-0 -0 -0 -0 -0 -0 -0 -0 -0 -0 -0 -0 -0 -0 -0 -0 -0 -139 -100 -180 -258 -393 -360 -399 -408 -381 -383 -391 -355 -328 -256 -222
-0 -0 -0 -0 -0 -0 -0 -0 -0 -0 -0 -0 -0 -0 -0 -0 -0 -0 -127 -121 -195 -284 -338 -356 -344 -329 -358 -345 -343 -342 -322 -298
-0 -0 -0 -0 -0 -0 -0 -0 -0 -0 -0 -0 -0 -0 -0 -0 -0 -0 -173 -133 -142 -163 -222 -218 -282 -292 -313 -338 -330 -328 -318 -321
-0 -0 -0 -0 -0 -0 -0 -0 -0 -0 -0 -0 -0 -0 -0 -0 -0 -0 -85 -119 -110 -118 -190 -245 -216 -190 -191 -248 -284 -275 -299 -318
-0 -0 -0 -0 -0 -0 -0 -0 -0 -0 -0 -0 -0 -0 -0 -0 -0 -0 -0 -148 -120 -123 -104 -136 -272 -153 -89 -113 -150 -200 -263 -282
-0 -0 -0 -0 -0 -0 -0 -0 -0 -0 -0 -0 -0 -0 -0 -0 -0 -0 -0 -190 -152 -122 -88 -97 -172 -199 -110 -105 -60 -58 -125 -206
-0 -0 -0 -0 -0 -0 -0 -0 -0 -0 -0 -0 -0 -0 -0 -0 -0 -0 -0 -167 -144 -145 -0 -153 -125 -75 -87 -65 -43 -47 -41 -42
-0 -0 -0 -0 -0 -0 -0 -0 -0 -0 -0 -0 -0 -0 -0 -0 -0 -0 -0 -120 -131 -0 -0 -0 -0 -92 -58 -60 -57 -52 -48 -27
-0 -0 -0 -0 -0 -0 -0 -0 -0 -0 -0 -0 -0 -0 -0 -0 -0 -0 -0 -0 -0 -0 -0 -0 -0 -0 -0 -0 -104 -79 -92 -160
-0 -0 -0 -0 -0 -0 -0 -0 -0 -0 -0 -0 -0 -0 -0 -0 -0 -0 -0 -0 -0 -0 -0 -302 -316 -0 -0 -0 -0 -0 -0 -0
Wind_Speed
23 24 24 21 20 23 26 20 21 18 15 16 12 8 7 6 10 12 12 13 14 14 15 15 16 16 16 17 16 17 17 17
27 29 25 24 27 29 24 21 22 13 16 13 14 9 6 8 10 8 8 9 11 12 12 13 13 13 14 14 15 15 14 15
28 29 26 23 25 28 26 17 20 19 13 13 14 5 8 8 7 7 5 7 8 9 10 10 10 11 12 12 12 12 12 12
32 31 27 24 25 24 22 15 18 11 10 12 5 6 5 6 7 6 7 7 7 8 7 7 6 7 7 9 9 10 11 10
30 31 30 25 24 25 23 18 18 9 10 10 6 3 6 6 9 9 7 6 6 5 5 5 5 5 5 6 6 8 9 9
29 29 31 23 26 27 27 23 11 12 11 7 10 1 2 4 6 8 5 3 4 5 4 3 3 4 4 5 6 6 7 7
35 30 30 28 28 27 26 18 16 12 7 7 7 7 2 7 4 3 4 0 2 3 4 4 3 3 3 4 5 6 6 5
30 32 36 34 33 24 21 17 15 10 7 8 10 10 3 6 8 6 3 3 4 3 4 4 4 3 3 3 4 5 6 6
37 35 32 33 34 28 24 24 17 18 12 14 14 16 16 7 9 8 8 7 5 6 6 5 5 6 6 5 6 7 8 8
35 34 31 34 30 28 24 22 18 19 21 18 18 20 20 18 12 10 10 10 8 7 6 6 5 6 7 6 6 8 9 10
33 35 33 34 34 33 27 25 26 25 26 27 23 22 21 17 15 8 9 10 11 10 9 8 8 6 7 7 6 8 10 12
35 36 32 31 34 30 31 28 31 29 29 31 31 27 27 22 18 12 7 8 11 11 10 9 9 9 8 10 8 11 12 14
32 33 34 26 35 31 30 30 34 37 35 31 30 26 26 29 21 16 13 10 10 12 11 11 13 13 14 14 13 14 16 14
27 23 23 24 41 36 33 34 32 32 32 32 28 23 24 25 29 16 13 10 10 11 12 12 14 15 16 16 15 16 17 17
30 26 26 27 38 36 33 31 31 31 33 30 28 25 25 26 26 16 11 10 11 12 13 13 17 19 22 21 20 19 19 20
26 24 27 34 38 41 33 29 28 32 34 27 23 24 22 20 17 11 10 10 10 11 12 19 21 20 22 25 24 25 25 25
34 32 27 27 29 33 28 25 26 24 23 19 18 21 23 23 16 15 13 13 12 12 13 15 17 20 22 23 25 28 29 29
34 34 26 30 33 29 25 23 22 21 20 21 24 25 24 22 14 13 13 14 13 13 13 16 17 19 23 27 29 31 33 35
31 33 27 31 34 32 30 26 25 24 23 25 25 27 26 23 21 17 16 15 12 10 10 11 13 16 19 24 27 30 34 35
32 33 37 27 40 33 30 33 30 34 38 39 39 30 26 23 20 16 13 12 12 12 13 16 18 19 23 25 30 30 33 35
Wind_Direction
250 248 250 257 259 276 271 281 285 307 311 289 312 19 24 41 94 101 106 112 115 114 112 110 106 104 103 100 98 98 98 97
246 241 253 253 262 275 267 285 295 312 314 311 302 312 346 88 95 97 103 110 117 119 117 116 112 108 108 107 104 104 101 99
248 248 255 266 278 290 278 286 295 293 302 299 291 8 87 90 95 104 112 119 124 126 123 120 117 116 114 113 110 108 107 107
247 249 258 268 277 293 289 294 291 327 320 312 43 58 68 74 86 97 122 132 134 136 134 130 124 122 121 121 122 119 116 114
255 256 261 262 284 289 295 301 297 307 317 316 325 56 94 73 83 90 99 123 131 139 144 142 141 141 139 135 134 132 130 127
258 259 259 270 283 292 293 292 309 303 304 313 315 290 335 52 79 88 80 104 135 143 156 171 176 164 162 159 158 158 155 147
253 259 260 276 283 294 294 289 289 304 318 322 343 30 353 300 310 320 316 296 172 196 209 178 196 213 210 201 194 186 184 182
259 261 260 272 281 292 296 298 289 297 307 321 327 336 343 284 280 274 246 226 222 199 203 218 252 239 244 220 232 240 241 239
260 262 265 270 273 281 283 280 291 282 292 301 306 306 316 306 269 230 253 260 222 194 187 192 255 266 269 258 259 251 245 245
266 268 274 272 281 281 283 283 289 291 290 297 302 300 300 306 317 251 252 250 239 224 205 221 245 233 248 246 246 260 253 256
267 267 271 273 278 278 280 285 286 290 287 284 293 295 299 301 309 298 259 243 224 225 219 230 253 264 260 259 248 263 262 261
268 270 274 276 278 281 277 284 284 286 287 282 284 289 287 290 292 287 269 251 237 231 231 252 256 265 257 270 266 280 276 266
278 275 272 281 277 278 283 285 283 281 282 284 285 287 288 280 284 278 272 258 234 231 237 251 270 271 275 278 275 280 280 276
284 285 286 281 274 280 281 283 284 283 282 283 284 284 292 284 280 275 267 249 241 254 249 261 277 284 280 281 277 281 281 281
281 281 283 282 281 283 278 281 283 281 284 283 282 281 286 282 282 278 253 247 254 258 261 264 281 284 284 283 283 285 283 280
278 290 292 286 283 284 280 279 281 285 286 282 275 274 283 286 287 272 253 251 249 257 267 286 284 284 285 289 286 289 287 285
276 285 295 294 294 304 288 276 282 289 289 288 276 280 286 290 279 272 263 256 253 261 275 290 294 289 287 288 291 292 294 296
280 286 291 293 291 299 304 293 284 290 289 288 286 285 284 285 275 252 259 253 255 261 273 290 299 302 298 295 294 294 295 296
282 286 296 295 288 290 292 299 296 294 297 294 290 285 282 278 275 264 264 265 262 268 286 299 309 313 310 305 299 296 295 298
283 285 283 296 284 288 293 292 296 296 293 291 291 289 284 273 271 263 264 268 273 282 291 298 300 305 305 303 301 301 301 299